COSMOS 1275 DEB, 19025

Orbit data source: Space-Track

COSMOS 1275 DEB, 19025 is space debris in LEO originally from a launch on Thu, 04 Jun 1981 UTC launched from the Plesetsk Missile And Space Complex (PKMTR). Debris objects in space refer to the collection of defunct objects orbiting the Earth. Examples of debris include non-operational satellites, rocket bodies, and fragments generated from explosions, collisions, or faulty payload assembly.

Loading next visibility...
Identifier
19025, 1981-053MC
Orbit
LEO
Country
Flag of CISCIS
Related business
Manufacturer
Unknown
Mission
Spacecraft
Bus & Motor
Unknown
Mass
Unknown
Launch date (UTC)
1981-06-04 (45 years ago)
Launch vehicle
Unknown
Launch site
Plesetsk Missile And Space Complex (PKMTR)
Object type
Payload
Rocket body
Debris
Shape & HBR
Unknown shape, 0.1 m
Radar Cross Section
Small (<0.1 m²)

Expand to show TLE details & history
Last TLE update: 1 day ago

TLE from 1 day ago
0 COSMOS 1275 DEB
1 19025U 81053MC  26093.21882782  .00006391  00000-0  24320-2 0  9994
2 19025  82.7054 180.5332 0021152  32.2388 328.0086 14.30694173 92516
Epoch: 2026-04-03T05:15Z
TLE epoch observation values (Epoch: 2026-04-03T05:15:06.723Z)
Latitude
-0.00008°
Longitude
-89.80093°
Altitude
779.531 km
Speed
7.471 km/s
True Right ascension
12h 02m 07s
True Declination
0° 00' 00"
Sunlit
Object was in full shadow at epoch
Visualization orbit readout
Latitude
Unknown
Longitude
Unknown
Altitude
Unknown
Speed
Unknown
Apparent Right ascension
Unknown
Apparent Declination
Unknown
Sunlit
N/A
Visualization observer readout
Local Sidereal Time
19:55:51
Azimuth
Unknown
Elevation
Unknown
Doppler factor
Unknown
Orbital elements
Apogee altitude
801.648 km
Perigee altitude
771.338 km
Semi-major axis
7,164.63 km
Eccentricity
0.00212
Inclination
82.7054°
RAAN
180.5332°
Arg. of periapsis
32.2388°
True anomaly
327.8799°
Mean anomaly
328.0086°
Eccentric anomaly
327.94428°
Mean motion
3.57892 °/min
Orbital period
100.59 mins
BSTAR
0.002432
Loading maneuver chart data...
Computing Atmospheric mass density...
Loading historical data...
Loading historical data...
Loading historical data...
Loading historical data...
Loading historical data...
Loading historical data...
Loading historical data...

Documentation

Showing up to 5 results
|